Regional Weather Roundup
Issued by NWS

Home | Current Version | Previous Version | Graphics & Text | Print | Product List | Glossary On
Versions: 1 2 3 4 5 6 7 8 9 10 11 12 13 14 15 16 17 18 19 20 21 22 23 24 25 26 27 28 29 30 31 32 33 34 35 36 37 38 39 40 41 42 43 44 45 46 47 48 49 50
489
ASUS43 KMKX 090600
RWRWI

WISCONSIN REGIONAL WEATHER ROUNDUP
NATIONAL WEATHER SERVICE MILWAUKEE/SULLIVAN WI
1200 AM CST TUE FEB 09 2016

NOTE: "FAIR" INDICATES FEW OR NO CLOUDS BELOW 12,000 FEET WITH NO
SIGNIFICANT WEATHER AND/OR OBSTRUCTIONS TO VISIBILITY.

WIZ001-002-006>008-014>016-023>028-090700-
NORTHWEST WISCONSIN

CITY           SKY/WX    TMP DP  RH WIND       PRES   REMARKS
SUPERIOR ARPT  CLOUDY     8  -1  67 N14       30.02R WCI  -8
ASHLAND        CLOUDY    11   7  84 NW12      29.91S FOG     WCI  -3
6HR MIN TEMP:  10; 6HR MAX TEMP:  13; 6HR PCP: TRACE;

HAYWARD        CLOUDY     7   0  73 NW10G16   29.90S HAZE    WCI  -8
6HR MIN TEMP:   7; 6HR MAX TEMP:  10; 6HR PCP:  0.02;

SIREN          MOCLDY     7  -1  70 N13G18    29.98R WCI  -9
CUMBERLAND     CLOUDY     5   0  78 N12G20    29.92R WCI -11
RICE LAKE      CLOUDY     8   1  72 NW14G20   29.94R WCI  -9
CHETEK         CLOUDY     8   1  73 MISG      29.92R
LADYSMITH      LGT SNOW   9   4  78 NW13      29.88R WCI  -6
EAU CLAIRE     NOT AVBL
MENOMONIE      CLOUDY    12   3  67 NW13      29.94R WCI  -3
NEW RICHMOND   CLOUDY    10   1  67 N20G25    29.96R WCI  -9
OSCEOLA        CLOUDY    10   1  67 N15G24    30.01R WCI  -6
$$

WIZ003>005-009-010-017-018-090700-
NORTH CENTRAL WISCONSIN

CITY           SKY/WX    TMP DP  RH WIND       PRES   REMARKS
MANITOWISH WTR LGT SNOW  10   7  86 NW8       29.75S WCI  -2
ARBOR VITAE    LGT SNOW  11   7  84 N7        29.74S WCI   1
WOODRUFF       LGT SNOW  11   7  84 N7        29.74S WCI   1
RHINELANDER    CLOUDY     9   4  80 NW6       29.73S HAZE    WCI  -1
6HR MIN TEMP:   9; 6HR MAX TEMP:  15; 6HR PCP: TRACE;

EAGLE RIVER    LGT SNOW  11   6  80 N6        29.72S WCI   2
LAND O LAKES   LGT SNOW  11   7  82 N13       29.73S WCI  -3
PHILLIPS       FLURRIES   7   3  82 NW7       29.79S WCI  -4
TOMAHAWK       PTCLDY     8   3  80 NW8       29.77S WCI  -4
MEDFORD        MOCLDY     8   3  79 NW13G18   29.78S WCI  -8
MERRILL        FLURRIES  10   5  80 NW6       29.78S WCI   0
$$

WIZ029-030-035-036-043>047-090700-
CENTRAL WISCONSIN

CITY           SKY/WX    TMP DP  RH WIND       PRES   REMARKS
WAUSAU         CLOUDY    12   5  73 NW8       29.76S WCI   0
6HR MIN TEMP:  12; 6HR MAX TEMP:  19; 6HR PCP: TRACE;

MOSINEE        CLEAR     10   9  92 NW10      29.79S WCI  -3
MARSHFIELD     CLOUDY    10   2  69 NW17      29.79S WCI  -8
6HR MIN TEMP:   9; 6HR MAX TEMP:  15; 6HR PCP: TRACE;

STEVENS POINT  LGT SNOW  11   5  79 NW10      29.79S WCI  -3
WAUPACA        CLOUDY    18  11  75 NW8       29.78S WCI   7
WAUTOMA        LGT SNOW  16  10  79 NW13      29.80S WCI   2
WISC RAPIDS    CLOUDY    11   3  70 NW9       29.82S WCI  -2
6HR MIN TEMP:  11; 6HR MAX TEMP:  16; 6HR PCP: TRACE;

CAMP DOUGLAS   MOCLDY    12  10  92 NW13      29.83S WCI  -3
$$

WIZ011>013-019>022-031-037>040-048>050-090700-
NORTHEAST WISCONSIN

CITY           SKY/WX    TMP DP  RH WIND       PRES   REMARKS
ANTIGO         FLURRIES  10   7  85 NW9       29.72S WCI  -2
SHAWANO        FLURRIES  18  11  72 NW6       29.77S WCI  10
OCONTO         PTCLDY    17  11  76 N7        29.76S WCI   8
STURGEON BAY   CLOUDY    18   9  68 N18       29.75S WCI   2
6HR MIN TEMP:  18; 6HR MAX TEMP:  25;

GREEN BAY      CLOUDY    18  10  71 NW12      29.75S WCI   5
6HR MIN TEMP:  18; 6HR MAX TEMP:  27; 6HR PCP:  0.01;

MANITOWOC      NOT AVBL
APPLETON       FLURRIES  18  10  73 NW12      29.73F WCI   5
CLINTONVILLE   MOCLDY    18  10  73 NW9       29.77S WCI   6
OSHKOSH        FLURRIES  18  11  74 NW12      29.75S WCI   5
6HR MIN TEMP:  18; 6HR MAX TEMP:  25; 6HR PCP: TRACE;

$$

WIZ032>034-041-042-053>061-090700-
SOUTHWEST WISCONSIN

CITY           SKY/WX    TMP DP  RH WIND       PRES   REMARKS
LA CROSSE      CLOUDY    13   5  70 N16       29.91R WCI  -3
6HR MIN TEMP:  13; 6HR MAX TEMP:  15; 6HR PCP:  0.04;

SPARTA         LGT SNOW  13   9  83 NW10      29.87S WCI   0
VIROQUA        CLOUDY    12   9  86 NW10      29.82R WCI  -1
BOSCOBEL       FLURRIES  15   9  76 N6        29.87S WCI   6
6HR MIN TEMP:  15; 6HR MAX TEMP:  18; 6HR PCP: TRACE;

PRAIRIE DU CHI MIX PCPN  15   9  76 NW9       29.88S WCI   3
PLATTEVILLE    CLOUDY    14  11  86 NW10      29.81F WCI   2
$$

WIZ056-057-062-063-064-067-068-090700-
SOUTH CENTRAL WISCONSIN

CITY           SKY/WX    TMP DP  RH WIND       PRES   REMARKS
REEDSBURG      LGT SNOW  13   8  81 NW13G20   29.81S WCI  -1
BARABOO/DELLS  LGT SNOW  13   8  81 NW13      29.80S WCI  -1
LONE ROCK      FLURRIES  15   7  70 NW10      29.84S WCI   2
6HR MIN TEMP:  15; 6HR MAX TEMP:  20; 6HR PCP: TRACE;

MINERAL POINT  LGT SNOW  16  12  86 NW10G17   29.79F WCI   3
MADISON        LGT SNOW  14   9  80 NW12      29.78S WCI   0
6HR MIN TEMP:  14; 6HR MAX TEMP:  21; 6HR PCP:  0.01;

MIDDLETON      CLOUDY    16  11  82 NW10      29.79S WCI   4
WATERTOWN      LGT SNOW  16  15  96 NW9       29.76S WCI   4
MONROE         FLURRIES  16  10  79 NW13      29.77S WCI   2
JANESVILLE     FLURRIES  19  12  73 NW15G22   29.78R WCI   5
$$

WIZ051-052-058>065-066-070>072-090700-
SOUTHEAST WISCONSIN

CITY           SKY/WX    TMP DP  RH WIND       PRES   REMARKS
MILWAUKEE      FLURRIES  19  14  81 NW13      29.73R WCI   6
6HR MIN TEMP:  19; 6HR MAX TEMP:  26; 6HR PCP:  0.01;

WAUKESHA       CLOUDY    16  12  86 NW16      29.74S WCI   0
MILWAUKEE/TIMM CLOUDY    19  12  73 NW13G20   29.74S WCI   7
RACINE         LGT SNOW  19  13  77 NW13G20   29.73F WCI   6
6HR MIN TEMP:  19; 6HR MAX TEMP:  25; 6HR PCP:  0.02;

BURLINGTON     LGT SNOW  17  12  81 NW12      29.74S WCI   4
KENOSHA        LGT SNOW  19  14  81 NW12      29.73S WCI   7
6HR MIN TEMP:  19; 6HR MAX TEMP:  25; 6HR PCP: TRACE;

FOND DU LAC    FLURRIES  18  13  80 NW13      29.75S WCI   5
6HR MIN TEMP:  18; 6HR MAX TEMP:  24; 6HR PCP: TRACE;

SHEBOYGAN      LGT SNOW  19  13  77 N9        29.73S WCI   8
6HR MIN TEMP:  19; 6HR MAX TEMP:  26; 6HR PCP:  0.01;

WEST BEND      LGT SNOW  18  14  86 NW12      29.73S WCI   5
JUNEAU         LGT SNOW  15  11  85 NW10G17   29.76S WCI   2
$$

LSZ147-162-090700-
LAKE SUPERIOR

STATION/POSITION TIME  TEMP    WIND        PRES    WAVE
                       AIR SEA DIR/SP/G            HT/PER
                 (UTC) (F)     (DEG/KT/KT) (MB)    (FT/S)
DEVILS ISLAND    0500   14     350/ 24/ 28 1014.5R
PORT WING        0520   13     330/ 19/ 26 1014.6S
SAXON HARBOR     0500   16                 1011.9
$$

LMZ867-665-643>646-090700-
LAKE MICHIGAN

STATION/POSITION TIME  TEMP    WIND        PRES    WAVE
                       AIR SEA DIR/SP/G            HT/PER
                 (UTC) (F)     (DEG/KT/KT) (MB)    (FT/S)
CHAMBERS ISLAND  0500   18     320/ 16/ 23 1007.5F
NORTHPORT PIER   0503   19     320/ 18/ 21 1007.1S
ALGOMA LAKESHORE 0511          360/ 12/ 14   N/A
KEWAUNEE LAKESHO 0500   19     350/ 11/ 16 1006.5S
SHEBOYGAN LAKESH 0500   22     350/ 21/ 24 1007.8R
PORT WASHINGTON  0520   20     310/  7/ 14 1007.8S
MILWAUKEE LAKESH 0510   20     300/ 13/ 18   N/A
KENOSHA   LAKESH 0500   21     300/ 15/ 24 1006.8S
$$

TC  - TEMPERATURE IN CELSIUS
VSB - VISIBILITY IN STATUTE MILES
WCI - WIND CHILL INDEX
HX  - HEAT INDEX





USA.gov is the U.S. government's official web portal to all federal, state and local government web resources and services.